Tupelo, MS

1:38 AM CDT on June 28, 2017 (GMT -0500)
Tupelo Regional

Weather History for KTUP - December, 2012

Change the Weather History Date:

Friday, December 7, 2012

  Actual Average Record
Temperature  
Mean Temperature 61 °F 46 °F  
Max Temperature 66 °F 56 °F 81 °F (1951)
Min Temperature 55 °F 36 °F 12 °F (1937)
Degree Days  
Heating Degree Days 4 19  
Month to date heating degree days 36 129  
Since 1 July heating degree days 655 651  
Cooling Degree Days 0 0  
Month to date cooling degree days 0 0  
Year to date cooling degree days 2202 2044  
Growing Degree Days 12 (Base 50)    
Moisture  
Dew Point 56 °F    
Average Humidity 86    
Maximum Humidity 93    
Minimum Humidity 78    
Precipitation  
Precipitation 0.00 in 0.22 in 1.84 in (1974)
Month to date precipitation 1.53 1.53  
Year to date precipitation 44.21 50.26  
Snow  
Snow 0.00 in 0.00 in T in (2011)
Month to date snowfall 0.0 0.0  
Since 1 July snowfall 0.0 0.0  
Snow Depth 0.00 in    
Sea Level Pressure  
Sea Level Pressure 29.94 in    
Wind  
Wind Speed 9 mph (SSW)    
Max Wind Speed 16 mph    
Max Gust Speed 21 mph    
Visibility 9 miles    
Events      
T = Trace of Precipitation, MM = Missing Value Source: NWS Daily Summary

Daily Weather History Graph

Daily Weather History Graph

Search for Another Location

Airport or City:

Trip Planner

Search our weather history database for the weather conditions in past years. The results will help you decide how hot, cold, wet, or windy it might be!

Date:

Astronomy

Dec. 07, 2012 Rise Set
Actual Time 6:48 AM CST 4:45 PM CST
Civil Twilight 6:20 AM CST 5:12 PM CST
Nautical Twilight 5:49 AM CST 5:44 PM CST
Astronomical Twilight 5:19 AM CST 6:14 PM CST
Moon 12:21 AM CST (12/7) 12:29 PM CST (12/7)
Length of Visible Light 10h 52m
Length of Day
9h 56m
Last Quarter, 38% of the Moon is Illuminated
Dec 7
Last Quarter
Dec 13
New
Dec 19
First Quarter
Dec 28
Full
Jan 4
Last Quarter

Hourly Weather History & Observations

Time (CST) Temp. Dew Point Humidity Pressure Visibility Wind Dir Wind Speed Gust Speed Precip Events Conditions
12:53 AM 59.0 °F 53.1 °F 81% 29.96 in 10.0 mi South 10.4 mph - N/A   Overcast
1:53 AM 59.0 °F 53.1 °F 81% 29.97 in 10.0 mi South 9.2 mph - N/A   Overcast
2:53 AM 59.0 °F 54.0 °F 83% 29.97 in 10.0 mi South 8.1 mph - N/A   Overcast
3:53 AM 57.9 °F 54.0 °F 87% 29.97 in 10.0 mi South 6.9 mph - N/A   Overcast
4:53 AM 57.9 °F 54.0 °F 87% 29.97 in 10.0 mi South 6.9 mph - N/A   Overcast
5:53 AM 57.9 °F 54.0 °F 87% 29.98 in 10.0 mi South 10.4 mph - N/A   Overcast
6:53 AM 57.9 °F 54.0 °F 87% 29.99 in 10.0 mi South 9.2 mph - N/A   Overcast
7:24 AM 57.2 °F 55.4 °F 94% 30.00 in 10.0 mi SSW 8.1 mph - N/A   Mostly Cloudy
7:53 AM 59.0 °F 55.0 °F 87% 30.00 in 10.0 mi South 8.1 mph - N/A   Overcast
8:08 AM 59.0 °F 55.4 °F 88% 30.00 in 10.0 mi South 11.5 mph - N/A   Overcast
8:53 AM 60.1 °F 55.9 °F 86% 29.99 in 10.0 mi South 12.7 mph 19.6 mph N/A   Overcast
9:53 AM 60.1 °F 55.9 °F 86% 29.99 in 10.0 mi South 13.8 mph 19.6 mph N/A   Overcast
10:53 AM 61.0 °F 57.0 °F 87% 29.98 in 9.0 mi SSW 11.5 mph - N/A   Overcast
11:53 AM 62.1 °F 57.0 °F 84% 29.95 in 8.0 mi SSW 11.5 mph - N/A   Overcast
12:23 PM 62.6 °F 57.2 °F 82% 29.94 in 4.0 mi SSW 11.5 mph - N/A   Overcast
12:53 PM 63.0 °F 57.9 °F 84% 29.93 in 4.0 mi South 8.1 mph - N/A   Overcast
1:38 PM 64.4 °F 57.2 °F 77% 29.90 in 10.0 mi SSW 12.7 mph - N/A   Overcast
1:53 PM 64.9 °F 57.9 °F 78% 29.89 in 10.0 mi SSW 10.4 mph - N/A   Mostly Cloudy
2:01 PM 64.4 °F 57.2 °F 77% 29.90 in 10.0 mi SSW 12.7 mph - N/A   Mostly Cloudy
2:53 PM 66.0 °F 59.0 °F 78% 29.89 in 10.0 mi SSW 9.2 mph - N/A   Overcast
3:23 PM 66.2 °F 57.2 °F 73% 29.89 in 10.0 mi South 8.1 mph - N/A   Partly Cloudy
3:53 PM 64.0 °F 57.9 °F 80% 29.88 in 10.0 mi South 8.1 mph - N/A   Clear
4:53 PM 62.1 °F 57.0 °F 84% 29.89 in 10.0 mi South 5.8 mph - N/A   Clear
5:53 PM 60.1 °F 57.0 °F 90% 29.91 in 10.0 mi South 6.9 mph - N/A   Partly Cloudy
6:30 PM 60.8 °F 57.2 °F 88% 29.92 in 10.0 mi South 6.9 mph - N/A   Mostly Cloudy
6:50 PM 60.8 °F 57.2 °F 88% 29.92 in 10.0 mi SSW 6.9 mph - N/A   Scattered Clouds
6:53 PM 60.1 °F 57.0 °F 90% 29.92 in 10.0 mi SSW 8.1 mph - N/A   Partly Cloudy
7:53 PM 60.1 °F 57.0 °F 90% 29.92 in 9.0 mi South 8.1 mph - N/A   Clear
8:53 PM 59.0 °F 57.0 °F 93% 29.93 in 7.0 mi SSW 5.8 mph - N/A   Partly Cloudy
9:06 PM 59.0 °F 57.2 °F 94% 29.93 in 7.0 mi SSW 5.8 mph - N/A   Mostly Cloudy
9:53 PM 59.0 °F 57.0 °F 93% 29.93 in 6.0 mi SSW 6.9 mph - N/A   Mostly Cloudy
10:04 PM 59.0 °F 57.2 °F 94% 29.94 in 6.0 mi SSW 6.9 mph - N/A   Mostly Cloudy
10:53 PM 59.0 °F 57.0 °F 93% 29.94 in 5.0 mi SSW 4.6 mph - N/A   Overcast
11:01 PM 59.0 °F 57.2 °F 94% 29.94 in 5.0 mi SSW 5.8 mph - N/A   Overcast
11:53 PM 59.0 °F 57.9 °F 96% 29.93 in 5.0 mi SSW 6.9 mph - N/A   Overcast